Погода в Сурабае

Индонезия     7°16′27″S   112°44′06″E
темп.,
°C
ветер,
м/с
пор.,
м/с
влажн.,
%
обл.,
%
осадки,
мм/ч
давл.,
гПа
погр.,
м
9 августа, вт
вт901:00+26юв13757 0.1 1009319
04:00+24з24825 0.0 1009172
07:00+26з11745 0.0 1011239
10:00+31вюв23515 0.0 1010976
13:00+32вюв44453 0.0 10071223
16:00+31всв445371 0.5 1007923
19:00+28вюв46645 1.4 1009581
22:00+27вюв477226 0.0 1010491
10 августа, ср
ср1001:00+25юз22755 0.1 1009198
04:00+24з2380100 0.0 1009152
07:00+26ю117211 0.0 1011218
10:00+31вюв345090 0.0 10101007
13:00+32в344555 0.0 10081315
16:00+31в445454 0.4 10081157
19:00+28в576810 1.0 1010668
22:00+26в367787 1.3 1012348
11 августа, чт
чт1101:00+27вюв3676100 1.4 1010357
04:00+26юв368090 0.0 1010323
07:00+27юв4676100 0.0 1011720
10:00+30вюв356381 0.0 10111015
13:00+29в356697 0.0 1009632
16:00+30в456237 0.0 1008956
19:00+28вюв476927 0.0 1010653
22:00+27вюв477213 0.0 1011672
12 августа, пт
пт1201:00+26юв257717 0.0 1009452
04:00+25ю128119 0.0 1009126
07:00+27ююз01765 0.0 1011281
10:00+31в345643 0.0 10111098
13:00+32вюв45507 0.0 10081165
16:00+31вюв56599 0.4 1007919
19:00+28в36705 0.9 1010553
22:00+27в357496 0.1 1011559
13 августа, сб
сб1301:00+27вюв35806 0.1 1009419
04:00+26юв238681 2.3 1009161
07:00+27вюв137933 2.8 1010492
10:00+31вюв45606 0.0 10101137
13:00+31вюв555521 0.3 10081139
16:00+30вюв566234 0.6 1007925
19:00+28вюв577224 0.8 1009566
22:00+27вюв36786 0.6 1010502